Location: Essen
(51.4609°N, 7.0127°E)
Time: 17:57:55
(UTC+02:00)

ISS - Pass Details

Date: 05 January 2018
Orbit: 401 x 409 km, 51.6° (Epoch: 19 August)

Event Time Altitude Azimuth Distance (km) Brightness Sun altitude
Exits shadow 07:43:29 - 279° (W) 1,550 -1.5 -7.9°
Reaches altitude 10° 07:43:34 10° 279° (W) 1,512 -1.5 -7.9°
Maximum altitude 07:46:58 80° 193° (SSW) 436 -3.7 -7.4°
Drops below altitude 10° 07:50:23 10° 106° (ESE) 1,518 0.7 -6.9°
Sets 07:52:30 0° 105° (ESE) 2,384 2.0 -6.6°
